[[{"header":{"parameterUnit":"m.s-1","parameterCategory":1,"la1":30.2991,"la2":30.254,"lo1":-89.0895,"lo2":-89.0444,"dy":0.0017,"dx":0.0017,"nx":28,"ny":28,"refTime":"2024-07-22T03:00:00:Z","depth":0,"parameterNumber":2,"parameterNumberName":"U-component_of_WINDS"},"data":[0,0,0,0,0,0,0,0,0,0,0,0,0,0,0,0,0,0,0,0,0,0,0,0,0,0,0,0,0,0,0,0,0,0,0,0,0,0,0,0,0,0,0,0,0,0,0,0,0,0,0,0,0,0,0,0,0,0,0.3491,0.3492,0,0.3572,0.3573,0.3574,0.362,0.362,0.362,0.362,0.3707,0.3709,0.3712,0,0,0,0,0,0,0,0,0,0,0,0,0,0.3376,0.3378,0.3491,0.3492,0.3493,0.3572,0.3573,0.3574,0.362,0.362,0.362,0.362,0.3707,0.3709,0.3712,0,0,0,0,0,0,0,0,0,0,0,0,0,0.3439,0.3378,0.349,0.3525,0.3529,0.3572,0.3573,0.3575,0.362,0.362,0.362,0.3621,0.3706,0.3709,0.3712,0.3728,0,0,0.3722,0.3724,0,0,0,0,0,0,0,0,0.3435,0.3443,0.3519,0.3523,0.3527,0.3586,0.3565,0.3626,0.362,0.3585,0.362,0.3621,0.3667,0.3673,0.3688,0.3732,0.3736,0.3722,0.3724,0.3726,0.3727,0,0,0,0,0,0,0,0.3431,0.3439,0.3523,0.352,0.3525,0.3537,0.3546,0.3577,0.3624,0.3588,0.3592,0.3601,0.3669,0.3685,0.3691,0.3737,0.3722,0.3725,0.3727,0.3729,0.3797,0.3797,0,0,0,0,0,0,0.342,0.3436,0.352,0.3525,0.348,0.3539,0.3549,0.3567,0.3624,0.3633,0.3601,0.3603,0.3679,0.3687,0.3694,0.3716,0.3726,0.3729,0.3731,0.3797,0.3797,0.3797,0,0,0,0,0,0,0.3418,0.3427,0.3517,0.3481,0.3494,0.354,0.356,0.3568,0.3584,0.3633,0.3642,0.3608,0.368,0.3689,0.3719,0.3719,0.373,0.3733,0.3797,0.3797,0.3797,0.3759,0,0,0,0,0,0,0.3414,0.3426,0.3433,0.3481,0.3495,0.354,0.356,0.357,0.3589,0.3593,0.3642,0.3651,0.3681,0.3714,0.3722,0.3724,0.3736,0.3797,0.3797,0.3797,0.3761,0.3758,0.3755,0,0,0,0,0,0.341,0.342,0.3433,0.3443,0.3504,0.354,0.3548,0.3582,0.3589,0.3596,0.3627,0.3649,0.3718,0.3716,0.3726,0.3729,0.3797,0.3797,0.3797,0.3762,0.3758,0.3755,0,0,0,0,0,0,0.3372,0.3427,0.3442,0.3468,0.3498,0.3547,0.3557,0.3577,0.3607,0.361,0.3651,0.3661,0.3686,0.3711,0.3708,0.3747,0.376,0.3761,0.373,0.3727,0.3724,0.3718,0.3739,0,0,0,0,0,0.3366,0.339,0.3437,0.3455,0.347,0.351,0.3527,0.355,0.3584,0.3598,0.3631,0.3664,0.3693,0.3711,0.3741,0.3764,0.3775,0.3771,0.3768,0.3766,0.3767,0.3779,0.3778,0.3795,0.3795,0.3795,0,0,0.3355,0.3388,0.3401,0.3448,0.3475,0.3499,0.3521,0.3546,0.3564,0.3602,0.3631,0.3657,0.3696,0.3722,0.3735,0.3743,0.3764,0.3765,0.3763,0.3765,0.3779,0.3777,0.3775,0.3795,0.3795,0.3795,0,0,0.3348,0.3375,0.3392,0.3418,0.3457,0.3484,0.3488,0.3534,0.3551,0.3581,0.3609,0.3631,0.3681,0.3707,0.3727,0.3726,0.3747,0.3735,0.3721,0.3733,0.3731,0.373,0.3729,0.3728,0.3736,0.3735,0.3735,0,0.3329,0.3366,0.3399,0.3422,0.3441,0.3475,0.3493,0.3516,0.3563,0.3576,0.3584,0.3645,0.3674,0.3706,0.3705,0.372,0.3726,0.373,0.3728,0.3728,0.3727,0.3727,0.3726,0.3734,0.3734,0.3734,0.3734,0,0.3341,0.3365,0.3375,0.3417,0.3438,0.3458,0.3495,0.3512,0.3533,0.3558,0.3587,0.3623,0.3659,0.3668,0.369,0.3702,0.3706,0.372,0.3735,0.3723,0.3723,0.3723,0.3731,0.3732,0.3732,0.3733,0,0,0.3313,0.3372,0.3375,0.3394,0.3439,0.3459,0.348,0.3514,0.3527,0.3558,0.3577,0.3616,0.3629,0.3651,0.3676,0.3686,0.3681,0.3699,0.3701,0.3694,0.3696,0.3685,0.3684,0.3695,0.3695,0.3695,0.3693,0,0.3311,0.335,0.338,0.3407,0.3429,0.3461,0.3479,0.3508,0.3532,0.3555,0.3583,0.3609,0.3625,0.3638,0.365,0.3679,0.3682,0.368,0.3713,0.3713,0.3701,0.3684,0.3673,0.3669,0.3693,0.3693,0.3693,0,0.3315,0.3342,0.3371,0.3412,0.3423,0.3438,0.3471,0.3492,0.3526,0.3543,0.3566,0.359,0.3614,0.3625,0.3657,0.3655,0.367,0.3686,0.3687,0.3691,0.3703,0.3688,0.3668,0.3667,0.3694,0.3694,0.3694,0,0.329,0.3335,0.3358,0.3373,0.3421,0.3431,0.3452,0.3486,0.3503,0.3532,0.3544,0.3575,0.3592,0.3616,0.3648,0.3653,0.3676,0.3691,0.3691,0.369,0.3695,0.3694,0.3677,0.3705,0.3705,0.3705,0.3705,0,0.3285,0.3302,0.3347,0.3361,0.338,0.3414,0.3432,0.3455,0.3485,0.3504,0.3533,0.355,0.3591,0.3613,0.3638,0.3661,0.3669,0.3683,0.3689,0.368,0.3678,0.369,0.3691,0.3705,0.3705,0.3705,0.3705,0,0.3262,0.3293,0.332,0.3362,0.3373,0.3385,0.3421,0.3436,0.3461,0.3484,0.3492,0.3531,0.3558,0.3592,0.3631,0.3647,0.3667,0.3677,0.3655,0.3659,0.3656,0.3656,0.3647,0.3647,0.3674,0.3674,0.3674,0,0.3257,0.3269,0.3312,0.3326,0.3346,0.3368,0.3386,0.342,0.3437,0.3474,0.3484,0.3513,0.3538,0.358,0.3613,0.3642,0.3653,0.3647,0.3657,0.3647,0.3651,0.365,0.3651,0.3645,0.3644,0.3644,0.3644,0,0.3243,0.3258,0.3281,0.331,0.333,0.3354,0.338,0.339,0.3429,0.3447,0.3474,0.3493,0.3531,0.3559,0.3592,0.3614,0.3635,0.364,0.3641,0.3632,0.3618,0.3624,0.3647,0.364,0.364,0.3641,0.3641,0.3641,0.3229,0.3241,0.3272,0.3297,0.332,0.3342,0.3358,0.3383,0.3406,0.3439,0.3457,0.3484,0.3515,0.3561,0.3582,0.3603,0.3611,0.3613,0.3614,0.3613,0.361,0.3614,0.3609,0.3609,0.3609,0.3609,0.361,0,0.3216,0.3237,0.326,0.3294,0.3313,0.333,0.3359,0.3374,0.3396,0.3424,0.3447,0.3477,0.3504,0.3537,0.3566,0.3576,0.3587,0.3583,0.3582,0.3587,0.3602,0.3597,0.3574,0.3574,0.3574,0.3574,0.3574,0.3574,0.3212,0.3233,0.3251,0.3283,0.3304,0.3329,0.3344,0.3365,0.3386,0.3418,0.344,0.3461,0.349,0.3521,0.3546,0.3555,0.3564,0.3557,0.3569,0.3583,0.3586,0.3589,0.3585,0.3559,0.3559,0.3552,0.3552,0.3552]},{"header":{"parameterUnit":"m.s-1","parameterCategory":1,"la1":30.2991,"la2":30.254,"lo1":-89.0895,"lo2":-89.0444,"dy":0.0017,"dx":0.0017,"nx":28,"ny":28,"refTime":"2024-07-22T03:00:00:Z","depth":0,"parameterNumber":3,"parameterNumberName":"V-component_of_WINDS"},"data":[0,0,0,0,0,0,0,0,0,0,0,0,0,0,0,0,0,0,0,0,0,0,0,0,0,0,0,0,0,0,0,0,0,0,0,0,0,0,0,0,0,0,0,0,0,0,0,0,0,0,0,0,0,0,0,0,0,0,3.1783,3.1782,0,3.1724,3.1723,3.1723,3.1717,3.1717,3.1718,3.1718,3.1651,3.1648,3.1646,0,0,0,0,0,0,0,0,0,0,0,0,0,3.1883,3.1881,3.1783,3.1782,3.1782,3.1724,3.1723,3.1723,3.1716,3.1717,3.1718,3.1719,3.1652,3.1649,3.1646,0,0,0,0,0,0,0,0,0,0,0,0,0,3.1833,3.188,3.1783,3.1772,3.177,3.1724,3.1723,3.1722,3.1716,3.1717,3.1718,3.1719,3.1652,3.1649,3.1645,3.1605,0,0,3.1635,3.1633,0,0,0,0,0,0,0,0,3.1836,3.1829,3.1774,3.1772,3.1771,3.1729,3.1734,3.1683,3.1716,3.1736,3.1718,3.1719,3.1675,3.167,3.1657,3.1601,3.1599,3.1634,3.1632,3.163,3.1629,0,0,0,0,0,0,0,3.1839,3.1832,3.1759,3.1773,3.1771,3.1767,3.1761,3.1724,3.1701,3.1735,3.1734,3.1728,3.1675,3.166,3.1655,3.1598,3.1634,3.1631,3.1629,3.1628,3.1503,3.1502,0,0,0,0,0,0,3.1846,3.1835,3.1761,3.1758,3.1806,3.1765,3.1758,3.1741,3.1702,3.1697,3.1727,3.1728,3.1666,3.1659,3.1653,3.1601,3.1631,3.1627,3.1625,3.1504,3.1503,3.1502,0,0,0,0,0,0,3.1848,3.1839,3.1764,3.1796,3.1786,3.1762,3.1743,3.1739,3.1725,3.1696,3.1691,3.1717,3.1666,3.1658,3.1617,3.1598,3.1626,3.1622,3.1506,3.1504,3.1502,3.1497,0,0,0,0,0,0,3.1851,3.184,3.1826,3.1796,3.1784,3.1731,3.1742,3.1738,3.172,3.172,3.1685,3.168,3.1666,3.1622,3.1613,3.1594,3.162,3.1507,3.1505,3.1503,3.1499,3.1495,3.1493,0,0,0,0,0,3.1854,3.1826,3.1826,3.1817,3.1767,3.173,3.1723,3.171,3.1719,3.1703,3.1684,3.1681,3.1602,3.1618,3.1608,3.1587,3.1508,3.1505,3.1503,3.15,3.1496,3.1493,0,0,0,0,0,0,3.1853,3.1822,3.1821,3.1783,3.1759,3.1729,3.1709,3.1706,3.1678,3.1679,3.1662,3.1654,3.1613,3.1596,3.1614,3.1544,3.1555,3.1551,3.1557,3.1553,3.155,3.1554,3.1617,0,0,0,0,0,3.1848,3.1823,3.1797,3.1765,3.1754,3.1734,3.1717,3.1709,3.1683,3.1672,3.165,3.1623,3.1592,3.1572,3.1541,3.1497,3.1487,3.1477,3.1474,3.1472,3.1467,3.144,3.1434,3.1493,3.1493,3.1493,0,0,3.1838,3.1818,3.1803,3.1764,3.1745,3.1717,3.1725,3.1695,3.1673,3.1667,3.1627,3.161,3.1578,3.1535,3.1514,3.1519,3.1449,3.1468,3.1467,3.1463,3.1436,3.1431,3.1426,3.1491,3.1492,3.1492,0,0,3.1805,3.1788,3.1759,3.174,3.1712,3.1699,3.1692,3.1662,3.1651,3.1611,3.1606,3.1578,3.1525,3.1502,3.1484,3.1441,3.1436,3.1431,3.1414,3.1388,3.1383,3.1379,3.1361,3.1355,3.1427,3.1427,3.1427,0,3.1795,3.1755,3.1744,3.1715,3.1697,3.1692,3.1661,3.1642,3.1604,3.1591,3.1597,3.153,3.1509,3.1459,3.1448,3.1434,3.1423,3.1434,3.1385,3.1381,3.1376,3.1359,3.1353,3.1427,3.1427,3.1427,3.1427,0,3.1743,3.1715,3.1694,3.166,3.164,3.161,3.1592,3.1572,3.1566,3.1551,3.1509,3.1483,3.1447,3.1434,3.1427,3.1382,3.1386,3.1389,3.14,3.137,3.1354,3.1347,3.1426,3.1426,3.1426,3.1426,0,0,3.1706,3.1667,3.1659,3.1643,3.1611,3.1588,3.1556,3.1523,3.1505,3.1479,3.145,3.1406,3.1408,3.1387,3.1377,3.1354,3.1318,3.1359,3.1358,3.135,3.1265,3.1261,3.1254,3.1316,3.1315,3.1314,3.1266,0,3.1667,3.1614,3.1603,3.1555,3.1528,3.1522,3.1494,3.147,3.1455,3.1427,3.141,3.1378,3.1384,3.1371,3.1349,3.1328,3.1301,3.1331,3.1286,3.1284,3.1292,3.1246,3.1242,3.1199,3.126,3.1259,3.1258,0,3.1615,3.159,3.154,3.1511,3.1499,3.1474,3.1442,3.1417,3.1388,3.1378,3.1355,3.1347,3.1311,3.1325,3.1273,3.1294,3.1274,3.1261,3.1259,3.1252,3.1268,3.1236,3.1185,3.1178,3.1249,3.1249,3.125,0,3.1591,3.1544,3.1508,3.1494,3.146,3.1442,3.1427,3.1399,3.138,3.135,3.1337,3.1303,3.1284,3.1256,3.1238,3.1251,3.1187,3.12,3.1175,3.1175,3.1161,3.1161,3.1104,3.1152,3.1152,3.1152,3.1152,0,3.1548,3.1517,3.1497,3.1474,3.1438,3.1425,3.1389,3.1373,3.1348,3.132,3.1313,3.1286,3.1266,3.1235,3.122,3.1178,3.117,3.1159,3.1155,3.1158,3.1159,3.1144,3.1146,3.115,3.115,3.1151,3.1151,0,3.1514,3.15,3.1459,3.1431,3.1422,3.1397,3.1371,3.1347,3.1332,3.1296,3.1287,3.1263,3.1226,3.1206,3.116,3.115,3.1102,3.1101,3.1112,3.111,3.1086,3.1087,3.1015,3.1003,3.1061,3.106,3.106,0,3.1487,3.1464,3.1432,3.1414,3.1399,3.137,3.135,3.1335,3.1314,3.1279,3.1259,3.1223,3.1193,3.1134,3.111,3.1074,3.107,3.1047,3.1065,3.1068,3.1067,3.1068,3.1064,3.1044,3.1043,3.1043,3.1042,0,3.144,3.1434,3.1407,3.1376,3.1353,3.1328,3.1303,3.1288,3.1269,3.1245,3.1209,3.1186,3.1139,3.1102,3.1064,3.1044,3.1039,3.1037,3.1029,3.1031,3.1038,3.1032,3.1102,3.1039,3.1039,3.1039,3.1039,3.104,3.1407,3.1385,3.136,3.1329,3.1309,3.1286,3.1262,3.1244,3.1215,3.1177,3.117,3.1131,3.11,3.1049,3.1029,3.0996,3.1,3.0989,3.0985,3.0982,3.098,3.1046,3.0989,3.0989,3.0989,3.0989,3.0989,0,3.1357,3.1341,3.1313,3.1279,3.1254,3.1255,3.1226,3.1205,3.1171,3.1145,3.1116,3.1073,3.1037,3.101,3.0972,3.0951,3.0947,3.0941,3.0941,3.0936,3.098,3.099,3.0945,3.0945,3.0945,3.0945,3.0945,3.0945,3.1328,3.1291,3.1281,3.1232,3.1215,3.1179,3.1163,3.114,3.1119,3.1072,3.1043,3.1027,3.0999,3.0959,3.0924,3.0917,3.0902,3.0896,3.0888,3.0929,3.0934,3.0938,3.0947,3.0894,3.0894,3.0847,3.0847,3.0847]}]]